FW7110 Weather Reports


Display with metric or nautical units.
time (UTC)temp
F
wind
direction
speed
MPH
gust
MPH
rain 1hr
in
rain 24hr
in
rain mn
in
humidity
%
barometer
mb
20260506050103 44 0 0.0 0.0 0.00 0.04 0.00 81 1011.7
20260506044608 45 0 0.0 0.0 0.00 0.04 0.04 80 1011.9
20260506043055 46 0 0.0 0.0 0.00 0.04 0.04 79 1011.8
20260506041606 47 0 0.0 0.0 0.00 0.04 0.04 78 1011.7
20260506040101 48 0 0.0 0.0 0.00 0.04 0.04 74 1011.8
20260506034601 48 0 0.0 0.0 0.00 0.04 0.04 73 1011.9
20260506033059 48 0 0.0 0.0 0.00 0.04 0.04 73 1012.0
20260506031600 49 0 0.0 0.0 0.00 0.04 0.04 70 1011.8
20260506030054 49 0 0.0 0.0 0.00 0.04 0.04 67 1011.7
20260506024600 49 0 0.0 0.0 0.00 0.11 0.04 66 1011.6
20260506023057 49 0 0.0 0.0 0.00 0.11 0.04 65 1011.7
20260506021554 50 0 0.0 0.0 0.00 0.11 0.04 65 1011.6
20260506020121 50 0 0.0 0.0 0.00 0.11 0.04 65 1011.2
20260506014554 50 0 0.0 0.0 0.00 0.12 0.04 59 1010.9
20260506013055 51 149 0.0 0.0 0.00 0.12 0.04 57 1011.0
20260506011559 51 0 0.0 0.0 0.00 0.12 0.04 58 1010.9
20260506010055 52 0 0.0 1.0 0.00 0.12 0.04 56 1010.5
20260506004555 52 0 0.0 1.0 0.00 0.12 0.04 55 1010.4
20260506003056 53 0 0.0 1.0 0.00 0.12 0.04 52 1010.1
20260506001606 53 0 0.0 1.0 0.00 0.12 0.04 51 1010.1
20260506000123 53 51 0.0 1.0 0.00 0.12 0.04 49 1010.1
20260505234601 53 0 0.0 1.0 0.00 0.12 0.04 51 1009.9
20260505233056 53 0 0.0 3.0 0.00 0.12 0.04 49 1010.3
20260505231559 53 71 0.0 3.0 0.00 0.12 0.04 51 1010.2
20260505230058 53 55 0.0 3.0 0.00 0.12 0.04 50 1010.1
20260505224554 53 234 1.0 4.0 0.00 0.12 0.04 50 1010.2
20260505223105 54 156 1.0 4.0 0.00 0.12 0.04 49 1010.4
20260505221558 53 108 1.0 3.0 0.00 0.12 0.04 47 1010.4
20260505220105 54 98 1.0 4.0 0.00 0.12 0.04 48 1010.3
20260505214601 54 84 1.0 6.0 0.00 0.12 0.04 47 1010.5
20260505213056 54 90 0.0 3.0 0.00 0.12 0.04 50 1010.6
20260505211631 54 86 2.0 5.0 0.00 0.12 0.04 46 1010.6
20260505210055 55 59 2.0 5.0 0.00 0.12 0.04 48 1010.6
20260505204605 55 82 2.0 4.0 0.00 0.12 0.04 48 1011.0
20260505203058 55 245 1.0 5.0 0.00 0.12 0.04 56 1011.2
20260505201555 54 230 1.0 5.0 0.00 0.12 0.04 58 1011.4
20260505200055 53 231 1.0 5.0 0.00 0.12 0.04 59 1011.4
20260505194554 54 242 2.0 6.0 0.00 0.12 0.04 57 1011.8
20260505193053 53 238 1.0 5.0 0.00 0.12 0.04 58 1011.7
20260505191603 53 246 0.0 3.0 0.00 0.12 0.04 58 1011.7
20260505190108 53 0 0.0 3.0 0.00 0.12 0.04 58 1011.7
20260505184554 53 72 1.0 3.0 0.00 0.12 0.04 58 1011.8
20260505183054 53 252 1.0 3.0 0.00 0.12 0.04 56 1011.7
20260505181633 53 259 0.0 2.0 0.00 0.12 0.04 57 1011.8
20260505180104 53 353 2.0 3.0 0.00 0.12 0.04 53 1011.8
20260505174553 53 96 1.0 5.0 0.00 0.12 0.04 56 1012.0
20260505173054 53 65 1.0 3.0 0.00 0.12 0.04 55 1011.9
20260505171601 53 52 1.0 4.0 0.00 0.12 0.04 54 1011.7
20260505170057 54 85 0.0 5.0 0.00 0.12 0.04 57 1011.5
20260505164554 54 57 2.0 5.0 0.00 0.12 0.04 56 1011.2
20260505163057 54 66 2.0 6.0 0.00 0.12 0.04 54 1011.3
20260505161553 54 79 2.0 7.0 0.00 0.12 0.04 59 1011.2
20260505153058 52 70 2.0 6.0 0.00 0.12 0.04 66 1010.7
20260505151602 50 53 0.0 4.0 0.00 0.12 0.04 73 1010.5
20260505124557 46 67 3.0 5.0 0.03 0.11 0.03 80 1010.6
20260505123058 47 97 2.0 5.0 0.01 0.09 0.01 75 1011.2
20260505121556 48 87 2.0 8.0 0.01 0.09 0.01 72 1011.5
20260505120111 49 103 1.0 7.0 0.00 0.08 0.00 68 1011.5
20260505114555 49 231 0.0 3.0 0.00 0.08 0.00 69 1010.3
20260505113056 49 243 0.0 7.0 0.00 0.08 0.00 70 1009.2
20260505111603 49 33 2.0 7.0 0.00 0.08 0.00 67 1008.8
20260505110113 50 72 1.0 4.0 0.00 0.08 0.00 63 1009.3
20260505101604 50 319 0.0 3.0 0.00 0.08 0.00 64 1008.6
20260505100056 51 72 1.0 4.0 0.00 0.08 0.00 65 1008.3
20260505094555 51 75 1.0 3.0 0.00 0.08 0.00 66 1008.3
20260505093104 52 25 1.0 5.0 0.00 0.08 0.00 63 1008.1
20260505091601 52 30 1.0 4.0 0.00 0.08 0.00 61 1008.5
20260505090100 53 4 1.0 3.0 0.00 0.08 0.00 58 1008.5
20260505084605 53 94 1.0 5.0 0.00 0.08 0.00 58 1008.1
20260505083112 54 82 1.0 6.0 0.00 0.08 0.00 56 1007.8
20260505081605 54 255 0.0 4.0 0.00 0.08 0.00 56 1007.8
20260505080055 55 4 2.0 5.0 0.00 0.08 0.00 54 1007.2
20260505074559 55 72 1.0 3.0 0.00 0.08 0.00 55 1006.6
20260505073059 55 70 1.0 4.0 0.00 0.08 0.00 56 1006.1
20260505071556 55 67 1.0 5.0 0.00 0.08 0.00 56 1005.8
20260505070100 56 248 1.0 4.0 0.00 0.08 0.00 58 1005.7
20260505064631 56 227 1.0 6.0 0.00 0.08 0.00 57 1005.7
20260505063053 57 79 2.0 5.0 0.00 0.08 0.00 61 1005.2
20260505061554 57 94 0.0 3.0 0.00 0.08 0.00 64 1004.9
20260505060056 58 103 2.0 6.0 0.00 0.08 0.00 63 1004.7